Location: Berville
(49.1893°N, 2.0748°E)
Time: 19:12:08
(UTC+00:00)

USA 186 - Pass Details

Date: 08 February 2023
Orbit: 390 x 439 km, 97.2° (Epoch: 28 March)

Event Time Altitude Azimuth Distance (km) Brightness Sun altitude
Exits shadow 18:50:16 12° 9° (N) 1,399 4.3 -18.4°
Drops below altitude 10° 18:50:37 10° 6° (N) 1,534 4.5 -18.5°
Sets 18:52:45 0° 356° (N) 2,394 5.6 -18.8°
